Regional Weather Roundup
Issued by NWS

Home | Current Version | Previous Version | Text Only | Print | Product List | Glossary On
Versions: 1 2 3 4 5 6 7 8 9 10 11 12 13 14 15 16 17 18 19 20 21 22 23 24 25 26 27 28 29 30 31 32 33 34 35 36 37 38 39 40 41 42 43 44 45 46 47 48 49 50
682
ASUS43 KLSX 020257
RWRMO

WEATHER SUMMARY FOR MISSOURI
NATIONAL WEATHER SERVICE SPRINGFIELD MO
1000 PM CDT SUN MAY 01 2016

NOTE: "FAIR" INDICATES FEW OR NO CLOUDS BELOW 12,000 FEET WITH NO
       SIGNIFICANT WEATHER AND/OR OBSTRUCTIONS TO VISIBILITY.
       CURRENT SKY AND/OR WEATHER CONDITIONS ARE NOT AVAILABLE FOR
       CHILLICOTHE AND FARMINGTON.

MOZ001>031-035>038-043-044-053-054-020400-
...NORTHERN AND WESTERN MISSOURI...

CITY           SKY/WX    TMP DP  RH WIND       PRES   REMARKS
KANSAS CTY INT CLOUDY    49  44  83 N9        30.11R
KANSAS C DTWN  CLOUDY    52  45  77 N7        30.11R
LEE`S SUMMIT   CLOUDY    51  45  79 N13       30.11R
ST JOSEPH      CLOUDY    49  45  86 N9        30.12R
CHILLICOTHE      N/A     50  46  86 VRB5      30.11R

$$
MOZ066>068-077>081-088>096-101>105-020400-
...SOUTHWEST MISSOURI...

CITY           SKY/WX    TMP DP  RH WIND       PRES   REMARKS
SPRINGFIELD    CLEAR     55  43  63 W5        30.06R
JOPLIN         CLOUDY    56  49  77 W7        30.09R

$$
MOZ032>034-039>042-045>050-055>058-069>072-020400-
...CENTRAL MISSOURI...

CITY           SKY/WX    TMP DP  RH WIND       PRES   REMARKS
COLUMBIA       NOT AVBL
JEFFERSON CITY CLEAR     54  46  74 NW9       30.06R
ROLLA          MOCLDY    55  46  71 NW7       30.02R
SEDALIA        CLOUDY    54  47  77 N8        30.08R
WARRENSBURG    CLOUDY    52  45  76 N6        30.08S

$$
MOZ051-052-059>065-020400-
...EAST CENTRAL MISSOURI...

CITY           SKY/WX    TMP DP  RH WIND       PRES   REMARKS
ST LOUIS INTL  PTCLDY    59  48  67 NW10      30.01R

$$
MOZ072>076-082>087-097>100-106>115-020400-
...SOUTH CENTRAL AND SOUTHEAST MISSOURI...

CITY           SKY/WX    TMP DP  RH WIND       PRES   REMARKS
CAPE GIRARDEAU CLEAR     68  53  58 N10       29.96R
POPLAR BLUFF   CLEAR     67  51  56 NW8       29.96R
WEST PLAINS    CLEAR     57  44  62 NW7       30.03R

$$



USA.gov is the U.S. government's official web portal to all federal, state and local government web resources and services.